Weather in Vysokyi

Ukraine / Kharkiv Region     49°52′54″N   36°06′49″E
temp.,
°C
wind,
m/s
gust,
m/s
humid.,
%
clouds,
%
prec.,
mm/h
press.,
hPa
HPBL,
m
29 july, thu
thu2900:00+21wsw36715 0.0 1013137
03:00+19wsw23830 0.0 101266
06:00+19wsw24845 0.0 1012101
09:00+27w22542 0.0 1012589
12:00+32sw343430 0.0 10102738
15:00+32wsw5430100 0.0 10092665
18:00+32wsw443353 0.1 10081565
21:00+22ssw4872100 0.1 1009214
30 july, fri
fri3000:00+19wsw368581 0.8 1010115
03:00+18sw23910 0.8 100958
06:00+19sw359189 0.1 1009138
09:00+26sw22625 0.1 1008442
12:00+32sw554055 0.0 10082073
15:00+30wsw454795 0.3 10071406
18:00+27n475447 0.2 1006468
21:00+20e1291100 4.8 100958
31 july, sat
sat3100:00+20nnw228689 0.0 101041
03:00+20ne228420 0.0 101038
06:00+19nne11820 0.0 101125
09:00+25nnw22520 0.0 1011497
12:00+31n23300 0.0 10112267
15:00+32nne23241 0.0 10102995
18:00+32ene222540 0.0 10102092
21:00+25sse35461 0.0 101180
1 august, sun
sun100:00+22s22540 0.0 101219
03:00+21s22580 0.0 101224
06:00+21s22580 0.0 101235
09:00+28s34380 0.0 1012572
12:00+32s32270 0.0 10112473
15:00+34s332237 0.0 10103027
18:00+33ssw4323100 0.0 10092440
21:00+26s364249 0.0 1010100
2 august, mon
mon200:00+24sw33470 0.0 101048
03:00+22wsw22500 0.0 101024
06:00+22s33540 0.0 101063
09:00+30ssw45376 0.0 1009668
12:00+34ssw682896 0.0 10082568
15:00+36sw782494 0.0 10063707
18:00+34sw582793 0.1 10062171
21:00+22s9157997 1.2 1007265